Cyprus Cement — C6UP5 — position and weather

sailwx.info

Track history (hours):
 
Tides and Currents Weather Stations Pressure Air Temp Water Temp Dewpoint Dewpoint Depression Visibility Wind Speed Wind Dir Waves Ship Positions

Cyprus Cement

Last reported at 2014-Jul-28 11:33 UTC. Time now 2014-Jul-29 06:43 UTC.
Position N 59°15' E 005°00'.

Length 97 m; draft 4.6 m.

Type: Cargo ship. MMSI: 311988000.

Date/timePositionNaut miles runAvg speedWind from/ knotsBaromVisibWave heightAir tempDewpointWater temp
2014-Jul-28 11:33N 59°15' E 005°00'1312.7
2014-Jul-28 10:34N 59°03' E 005°09'1212.5
2014-Jul-28 09:33N 58°51' E 005°16'2713.4
2014-Jul-28 07:33N 58°27' E 005°38'1313.2
2014-Jul-28 06:33N 58°18' E 005°57'1212.0
2014-Jul-28 05:33N 58°10' E 006°14'5 0.2
2014-Jul-27 04:23N 58°08' E 006°23'1012.4
2014-Jul-27 03:33N 58°15' E 006°08'1212.2
2014-Jul-27 02:33N 58°23' E 005°52'1111.5
2014-Jul-27 01:34N 58°31' E 005°36'1311.9
2014-Jul-27 00:27N 58°43' E 005°23'1111.7
2014-Jul-26 23:33N 58°52' E 005°16'1211.9
2014-Jul-26 22:34N 59°04' E 005°08'1211.9
2014-Jul-26 21:33N 59°15' E 004°60'68 6.7
2014-Jul-26 11:21N 60°23' E 005°10'230 7.6
2014-Jul-25 05:09N 63°30' E 009°55'610.6
2014-Jul-25 04:33N 63°29' E 010°09'1212.3
2014-Jul-25 03:33N 63°36' E 010°32'4 0.1
2014-Jul-23 21:12N 63°37' E 010°40'812.3
2014-Jul-23 20:33N 63°31' E 010°30'5 4.6
2014-Jul-23 19:32N 63°27' E 010°25'0 0.0
2014-Jul-23 18:32N 63°27' E 010°25'0 0.0
2014-Jul-23 17:32N 63°27' E 010°25'0 0.0
2014-Jul-23 16:32N 63°27' E 010°25'0 0.0
2014-Jul-23 15:32N 63°27' E 010°25'0 0.0
2014-Jul-23 14:32N 63°27' E 010°25'0 0.0
2014-Jul-23 13:32N 63°27' E 010°25'0 0.0
2014-Jul-23 12:32N 63°27' E 010°25'0 0.0
2014-Jul-23 11:32N 63°27' E 010°25'0 0.0
2014-Jul-23 10:32N 63°27' E 010°25'0 0.0
2014-Jul-23 09:32N 63°27' E 010°25'0 0.0
2014-Jul-23 08:32N 63°27' E 010°25'0 0.0
2014-Jul-23 07:32N 63°27' E 010°25'1 0.8
2014-Jul-23 06:33N 63°27' E 010°25'9 9.3
2014-Jul-23 05:33N 63°29' E 010°05'185 8.8
2014-Jul-22 08:32N 66°29' E 011°42'1010.8
2014-Jul-22 07:33N 66°38' E 011°57'1211.3
2014-Jul-22 06:31N 66°47' E 012°15'1111.5
2014-Jul-22 05:33N 66°56' E 012°32'1211.8
2014-Jul-22 04:32N 67°05' E 012°51'3511.8
2014-Jul-22 01:33N 67°33' E 013°46'2412.0
2014-Jul-21 23:31N 67°53' E 014°25'2 0.1
2014-Jul-21 01:28N 67°52' E 014°29'1211.9
2014-Jul-21 00:29N 67°43' E 014°09'1612.1
2014-Jul-20 23:11N 67°28' E 014°23'711.0
2014-Jul-20 22:33N 67°22' E 014°23'5 5.1
2014-Jul-20 21:32N 67°16' E 014°21'0 0.0
2014-Jul-20 20:29N 67°16' E 014°21'0 0.0
2014-Jul-20 19:31N 67°16' E 014°21'0 0.0
2014-Jul-20 18:29N 67°16' E 014°21'0 0.0
2014-Jul-20 17:32N 67°16' E 014°21'0 0.0
2014-Jul-20 16:29N 67°16' E 014°21'0 0.0
2014-Jul-20 15:31N 67°16' E 014°21'0 0.0
2014-Jul-20 14:32N 67°16' E 014°21'0 0.0
2014-Jul-20 13:32N 67°16' E 014°21'0 0.0
2014-Jul-20 12:31N 67°16' E 014°21'0 0.0
2014-Jul-20 11:26N 67°16' E 014°21'0 0.0
2014-Jul-20 10:32N 67°16' E 014°21'0 0.0
2014-Jul-20 09:32N 67°16' E 014°21'0 0.0
2014-Jul-20 08:29N 67°16' E 014°21'0 0.0
2014-Jul-20 07:32N 67°16' E 014°21'0 0.0
2014-Jul-20 06:32N 67°16' E 014°21'2 1.6
2014-Jul-20 05:33N 67°17' E 014°17'1110.8
2014-Jul-20 04:33N 67°27' E 014°25'1212.2
2014-Jul-20 03:33N 67°39' E 014°15'1310.8
2014-Jul-20 02:22N 67°51' E 014°25'  
Track history (hours):
 
Tides and Currents Weather Stations Pressure Air Temp Water Temp Dewpoint Dewpoint Depression Visibility Wind Speed Wind Dir Waves Ship Positions

Cyprus Cement

Last reported at 2014-Jul-28 11:33 UTC. Time now 2014-Jul-29 06:43 UTC.
Position N 59°15' E 005°00'.

Length 97 m; draft 4.6 m.

Type: Cargo ship. MMSI: 311988000.

Date/timePositionNaut miles runAvg speedWind from/ knotsBaromVisibWave heightAir tempDewpointWater temp
2014-Jul-28 11:33N 59°15' E 005°00'1312.7
2014-Jul-28 10:34N 59°03' E 005°09'1212.5
2014-Jul-28 09:33N 58°51' E 005°16'2713.4
2014-Jul-28 07:33N 58°27' E 005°38'1313.2
2014-Jul-28 06:33N 58°18' E 005°57'1212.0
2014-Jul-28 05:33N 58°10' E 006°14'5 0.2
2014-Jul-27 04:23N 58°08' E 006°23'1012.4
2014-Jul-27 03:33N 58°15' E 006°08'1212.2
2014-Jul-27 02:33N 58°23' E 005°52'1111.5
2014-Jul-27 01:34N 58°31' E 005°36'1311.9
2014-Jul-27 00:27N 58°43' E 005°23'1111.7
2014-Jul-26 23:33N 58°52' E 005°16'1211.9
2014-Jul-26 22:34N 59°04' E 005°08'1211.9
2014-Jul-26 21:33N 59°15' E 004°60'68 6.7
2014-Jul-26 11:21N 60°23' E 005°10'230 7.6
2014-Jul-25 05:09N 63°30' E 009°55'610.6
2014-Jul-25 04:33N 63°29' E 010°09'1212.3
2014-Jul-25 03:33N 63°36' E 010°32'4 0.1
2014-Jul-23 21:12N 63°37' E 010°40'812.3
2014-Jul-23 20:33N 63°31' E 010°30'5 4.6
2014-Jul-23 19:32N 63°27' E 010°25'0 0.0
2014-Jul-23 18:32N 63°27' E 010°25'0 0.0
2014-Jul-23 17:32N 63°27' E 010°25'0 0.0
2014-Jul-23 16:32N 63°27' E 010°25'0 0.0
2014-Jul-23 15:32N 63°27' E 010°25'0 0.0
2014-Jul-23 14:32N 63°27' E 010°25'0 0.0
2014-Jul-23 13:32N 63°27' E 010°25'0 0.0
2014-Jul-23 12:32N 63°27' E 010°25'0 0.0
2014-Jul-23 11:32N 63°27' E 010°25'0 0.0
2014-Jul-23 10:32N 63°27' E 010°25'0 0.0
2014-Jul-23 09:32N 63°27' E 010°25'0 0.0
2014-Jul-23 08:32N 63°27' E 010°25'0 0.0
2014-Jul-23 07:32N 63°27' E 010°25'1 0.8
2014-Jul-23 06:33N 63°27' E 010°25'9 9.3
2014-Jul-23 05:33N 63°29' E 010°05'185 8.8
2014-Jul-22 08:32N 66°29' E 011°42'1010.8
2014-Jul-22 07:33N 66°38' E 011°57'1211.3
2014-Jul-22 06:31N 66°47' E 012°15'1111.5
2014-Jul-22 05:33N 66°56' E 012°32'1211.8
2014-Jul-22 04:32N 67°05' E 012°51'3511.8
2014-Jul-22 01:33N 67°33' E 013°46'2412.0
2014-Jul-21 23:31N 67°53' E 014°25'2 0.1
2014-Jul-21 01:28N 67°52' E 014°29'1211.9
2014-Jul-21 00:29N 67°43' E 014°09'1612.1
2014-Jul-20 23:11N 67°28' E 014°23'711.0
2014-Jul-20 22:33N 67°22' E 014°23'5 5.1
2014-Jul-20 21:32N 67°16' E 014°21'0 0.0
2014-Jul-20 20:29N 67°16' E 014°21'0 0.0
2014-Jul-20 19:31N 67°16' E 014°21'0 0.0
2014-Jul-20 18:29N 67°16' E 014°21'0 0.0
2014-Jul-20 17:32N 67°16' E 014°21'0 0.0
2014-Jul-20 16:29N 67°16' E 014°21'0 0.0
2014-Jul-20 15:31N 67°16' E 014°21'0 0.0
2014-Jul-20 14:32N 67°16' E 014°21'0 0.0
2014-Jul-20 13:32N 67°16' E 014°21'0 0.0
2014-Jul-20 12:31N 67°16' E 014°21'0 0.0
2014-Jul-20 11:26N 67°16' E 014°21'0 0.0
2014-Jul-20 10:32N 67°16' E 014°21'0 0.0
2014-Jul-20 09:32N 67°16' E 014°21'0 0.0
2014-Jul-20 08:29N 67°16' E 014°21'0 0.0
2014-Jul-20 07:32N 67°16' E 014°21'0 0.0
2014-Jul-20 06:32N 67°16' E 014°21'2 1.6
2014-Jul-20 05:33N 67°17' E 014°17'1110.8
2014-Jul-20 04:33N 67°27' E 014°25'1212.2
2014-Jul-20 03:33N 67°39' E 014°15'1310.8
2014-Jul-20 02:22N 67°51' E 014°25'  

Dump ship's entire track history